Location: Newark
(48.6330°N, 1.1472°E)
Time: 17:07:14
(UTC+00:00)

N. Korean satellite - Visible Passes

Search period start: 28 January 2020 00:00
Search period end: 07 February 2020 00:00
Orbit: 454 x 507 km, 97.2° (Epoch: 28 January)

Date Brightness Start Highest point End Pass type
(mag) Time Alt. Az. Time Alt. Az. Time Alt. Az.
28 Jan 6.4 06:00:41 10° N 06:04:17 75° WNW 06:07:54 10° SSW visible
29 Jan 7.4 05:35:14 10° NNE 05:38:46 53° E 05:42:20 10° S visible
29 Jan 9.7 17:48:47 10° SW 17:51:09 17° W 17:53:32 10° NW visible
30 Jan 8.8 05:10:02 10° NE 05:13:10 27° E 05:16:18 10° SSE visible
30 Jan 7.6 06:43:29 10° NNW 06:46:28 25° WNW 06:49:30 10° WSW visible
30 Jan 8.5 17:22:19 10° SSW 17:25:28 33° W 17:28:39 10° NNW visible
31 Jan 9.8 04:45:21 10° NE 04:47:29 15° E 04:49:35 10° SE visible
31 Jan 6.8 06:17:37 10° N 06:21:07 46° WNW 06:24:37 10° SW visible
01 Feb 6.6 05:51:59 10° NNE 05:55:38 86° ESE 05:59:19 10° SSW visible
01 Feb 10.1 18:06:57 10° WSW 18:08:09 11° W 18:09:20 10° WNW visible
02 Feb 7.9 05:26:36 10° NNE 05:30:06 42° E 05:33:36 10° S visible
02 Feb 9.5 17:39:40 10° SW 17:42:23 22° W 17:45:10 10° NW visible
03 Feb 9.2 05:01:32 10° NE 05:04:28 22° E 05:07:24 10° SSE visible
03 Feb 7.4 06:34:38 10° N 06:37:53 30° WNW 06:41:08 10° SW visible
04 Feb 10.1 04:37:13 10° ENE 04:38:44 12° E 04:40:15 10° ESE visible
04 Feb 6.6 06:08:52 10° N 06:12:28 59° WNW 06:16:06 10° SSW visible
05 Feb 6.9 05:43:19 10° NNE 05:46:59 69° ESE 05:50:39 10° S visible
05 Feb 9.9 17:57:24 10° SW 17:59:22 14° W 18:01:21 10° NW visible
06 Feb 8.4 05:18:01 10° NNE 05:21:24 34° E 05:24:47 10° SSE visible
06 Feb 9.1 17:30:39 10° SSW 17:33:38 27° W 17:36:41 10° NW visible
